Wind_Speed
30 30 30 31 31 32 33 34 36 37 38 39 40 41 43 44 44 44 45 45 45 46 47 48 48 48 48 48 47 46 45 44 43 41 39 37 36 35 34 34 34 34 33
34 34 35 35 35 36 36 37 38 39 40 41 43 44 46 48 49 49 50 50 50 50 50 50 50 51 51 51 51 50 48 47 46 44 42 40 38 36 35 35 34 33 33
39 39 39 39 39 40 41 42 43 45 46 47 49 50 51 52 53 54 55 56 56 56 55 54 54 54 54 53 53 53 52 50 49 47 45 43 40 38 37 36 36 35 34
41 42 43 43 44 46 47 49 51 52 54 55 56 56 56 57 57 58 59 60 60 61 60 60 58 58 58 57 56 56 55 54 52 50 48 46 43 40 38 37 36 36 35
44 46 47 49 52 53 55 56 58 59 60 60 60 60 60 59 59 59 61 61 63 64 63 65 65 63 63 62 60 59 58 57 55 53 51 49 46 44 41 39 37 36 37
47 49 51 53 55 57 58 60 61 63 64 65 65 66 66 66 66 66 66 66 66 65 65 65 66 67 67 66 66 64 62 60 59 56 54 52 49 47 45 42 40 39 39
49 51 54 56 57 59 61 64 66 69 71 73 74 75 75 74 75 75 75 74 73 73 72 71 69 68 69 69 68 68 67 65 63 61 59 57 54 52 49 46 44 42 41
52 55 57 62 65 69 72 73 75 78 80 82 83 84 84 82 81 82 83 82 82 81 80 78 78 76 73 72 71 70 69 69 67 66 64 63 60 57 54 51 48 46 45
58 62 67 71 74 77 80 81 84 85 85 84 84 84 85 84 81 78 77 78 80 81 81 79 78 79 79 78 77 76 73 71 70 69 69 68 65 63 60 57 54 51 49
67 70 73 76 79 82 85 86 87 86 84 81 78 76 76 74 72 71 69 68 70 72 74 75 74 73 74 76 78 79 79 77 75 73 72 71 69 67 65 63 60 57 55
73 76 79 82 84 86 86 84 82 78 75 73 70 69 68 67 66 66 64 60 61 63 65 68 68 66 64 67 71 75 78 79 80 79 77 75 73 71 69 68 65 63 61
79 82 84 86 85 84 81 77 74 71 69 67 66 66 66 65 64 65 64 60 59 60 63 63 61 59 58 59 61 66 71 75 78 80 80 80 78 77 75 73 71 69 67
83 86 86 84 80 76 72 69 67 66 65 65 65 65 64 64 63 63 64 62 59 56 58 58 57 55 54 55 56 57 59 62 67 72 76 78 79 78 77 75 74 71 69
85 84 80 75 69 65 62 61 60 60 60 60 60 59 59 59 59 59 59 58 53 49 50 50 51 49 48 49 49 49 49 49 52 57 62 66 68 70 70 70 69 68 67
79 74 66 60 58 57 56 55 54 53 52 51 50 49 48 48 48 48 47 46 44 42 40 40 41 41 41 41 40 40 39 37 38 40 45 50 54 57 58 59 60 60 61
65 57 54 54 53 52 50 47 45 44 42 41 40 39 39 38 37 36 36 36 36 35 32 29 30 31 32 32 31 30 29 28 28 30 32 36 39 43 47 50 52 55 56
50 49 48 47 45 43 41 40 39 38 37 37 36 35 33 32 31 30 31 32 32 31 28 25 24 24 23 22 22 22 22 22 22 23 24 26 29 32 37 42 47 49 51
43 42 41 40 39 37 37 36 36 35 35 34 32 31 29 28 28 28 29 28 28 27 26 21 19 19 18 17 17 17 16 16 17 18 19 21 23 27 30 33 36 38 38
37 36 36 35 35 35 35 34 33 32 31 30 28 27 25 25 25 25 24 24 24 23 22 18 16 17 16 16 15 14 14 15 15 16 17 17 17 18 20 21 23 27 28
31 32 32 32 32 31 31 30 29 27 26 24 22 21 20 20 20 21 22 22 21 19 16 14 15 15 15 15 15 14 14 13 14 16 16 16 14 14 18 24 25 26 27
28 28 28 27 27 26 25 25 24 22 20 18 16 15 15 16 17 18 18 17 15 13 11 12 13 13 15 16 15 14 14 14 15 16 16 15 18 21 24 25 28 30 31
26 26 26 26 25 24 24 22 21 19 16 15 14 13 13 13 14 15 15 12 9 7 7 9 11 12 14 16 15 13 12 12 14 15 15 15 19 28 28 28 32 31 30
28 28 28 27 26 25 24 22 20 18 16 14 13 13 12 13 13 13 12 7 5 4 5 7 10 12 14 14 13 12 12 12 13 14 15 15 17 26 32 32 30 27 25
29 29 28 27 26 25 24 22 20 18 15 13 13 13 13 12 11 11 9 4 2 5 7 10 12 14 15 14 12 12 13 13 13 14 15 14 18 25 31 31 30 26 23
30 30 29 28 27 25 24 23 21 19 17 15 13 12 12 11 9 8 6 3 4 7 10 12 14 15 16 14 13 12 13 14 14 14 14 15 20 25 28 30 29 25 22
32 31 30 28 26 25 23 22 21 20 17 15 13 12 10 9 6 5 2 2 5 9 11 13 15 17 16 15 15 15 15 15 15 15 16 17 21 24 25 26 25 22 19
Wind_Direction
282 282 282 282 281 281 280 280 280 281 281 282 282 282 281 280 278 277 276 274 274 273 272 271 270 270 269 270 269 269 269 269 269 269 268 267 267 267 267 267 267 267 266
280 280 281 282 283 283 284 284 284 283 283 283 283 283 283 282 281 279 277 275 272 270 269 269 269 269 268 268 268 268 268 267 267 268 267 266 264 264 265 265 265 265 265
277 277 278 279 281 283 285 286 286 286 287 287 286 286 285 284 283 282 280 278 274 271 268 267 266 265 265 265 265 265 265 265 265 265 264 264 262 262 262 263 264 263 263
279 278 279 280 281 283 285 286 286 286 287 287 287 287 287 287 286 283 281 279 277 274 272 268 266 265 264 262 261 262 261 261 261 261 261 261 260 260 261 262 263 263 263
283 283 283 284 286 286 287 286 286 286 286 285 284 285 284 283 283 282 281 279 278 276 274 272 268 266 264 263 262 260 260 259 258 258 258 257 258 259 260 261 263 264 265
288 288 288 288 288 288 287 287 286 286 286 285 284 284 283 281 280 279 278 277 276 276 274 272 270 268 265 263 262 261 259 258 257 255 254 253 254 256 259 261 264 265 266
289 289 289 289 290 291 290 289 288 288 288 287 286 285 284 283 281 280 278 276 276 276 274 272 270 268 267 264 262 260 259 257 255 254 253 251 251 253 256 260 263 266 267
291 292 293 294 294 294 293 292 291 290 290 289 288 287 285 283 283 282 281 279 276 275 274 273 272 269 267 265 264 261 258 256 253 252 251 250 250 251 253 256 259 263 267
296 296 296 296 295 294 293 293 292 291 291 290 289 288 287 285 283 281 280 279 278 276 274 272 270 269 267 266 264 262 260 257 255 251 249 249 250 251 253 255 257 260 265
297 297 296 295 294 294 293 292 292 291 290 289 288 287 286 285 284 281 279 279 278 276 274 272 270 268 267 265 264 262 260 259 257 254 251 250 250 251 253 255 258 260 263
296 296 296 295 295 294 293 293 292 291 289 288 287 286 286 285 284 282 282 281 280 280 278 275 273 271 268 266 264 262 260 258 257 256 255 253 253 253 255 257 259 261 262
296 296 296 296 296 295 294 292 291 289 288 288 287 287 286 285 284 283 284 284 283 280 278 276 275 273 271 269 266 263 260 258 257 256 256 255 254 255 256 258 259 260 261
296 296 297 297 296 295 293 291 290 289 288 287 287 286 285 284 283 282 283 285 284 281 277 276 275 274 272 271 269 266 263 259 256 255 254 254 254 255 256 257 257 258 260
297 298 298 297 296 295 294 292 291 290 289 289 289 287 285 284 283 283 283 284 284 281 277 276 275 274 272 270 269 268 265 261 257 254 252 251 251 252 253 253 254 254 255
299 299 298 297 297 296 295 294 293 293 292 292 290 289 287 286 284 284 284 284 285 284 280 276 274 273 270 269 267 266 265 263 259 254 250 248 247 247 248 248 248 248 248
299 298 298 298 298 299 298 298 297 296 296 295 293 292 290 288 287 286 286 286 286 286 284 279 273 269 267 265 264 264 263 261 256 252 248 246 245 244 244 243 242 242 242
298 298 299 300 301 301 301 301 300 299 299 297 296 294 293 290 289 289 289 288 286 286 286 281 274 267 265 261 258 256 256 252 248 246 243 241 241 241 240 240 239 238 238
300 301 303 303 304 304 304 304 302 301 300 299 297 296 295 293 292 292 291 290 287 286 285 278 264 259 255 250 248 247 245 241 238 238 238 238 237 235 232 229 227 227 225
303 306 308 308 307 307 307 306 305 304 303 300 297 296 296 296 297 295 294 293 289 285 280 270 252 246 243 240 238 235 233 232 232 233 235 234 229 220 210 194 192 187 190
310 312 314 313 312 311 310 310 308 307 307 304 301 298 297 298 300 299 298 295 290 283 272 254 240 238 235 229 223 224 226 230 231 232 228 221 216 206 185 169 169 173 177
318 319 320 321 320 318 317 316 313 310 311 311 307 304 302 303 307 307 303 298 291 279 258 239 230 226 221 216 216 218 222 227 227 222 217 208 193 181 172 171 173 178 180
321 321 321 320 319 319 319 319 318 313 311 311 310 309 308 311 311 314 311 302 288 268 242 225 217 212 207 202 205 208 213 214 212 212 207 199 186 179 182 182 179 181 185
318 316 315 313 312 310 311 313 315 312 309 305 304 306 308 310 310 315 318 303 278 237 199 188 186 183 183 184 189 196 198 195 194 196 195 188 178 179 180 181 182 185 187
320 318 316 313 310 307 305 304 304 303 301 300 299 301 303 304 301 308 316 302 237 190 178 171 168 168 169 171 180 182 178 175 173 181 188 183 173 174 178 183 186 190 191
324 321 318 315 311 307 304 301 297 294 289 286 288 295 302 303 292 294 297 283 189 176 171 169 168 166 164 161 161 160 159 161 165 175 179 171 165 167 173 179 185 187 192
325 322 318 314 310 307 303 298 293 288 282 276 273 280 294 303 286 266 239 175 167 168 167 168 168 166 162 160 158 156 155 158 161 165 167 160 158 162 168 174 181 188 194
Height
5840 5838 5836 5834 5832 5830 5828 5826 5824 5822 5820 5818 5816 5814 5813 5812 5811 5809 5808 5808 5807 5807 5807 5807 5807 5807 5807 5807 5807 5808 5809 5809 5809 5810 5811 5811 5813 5814 5815 5816 5817 5819 5820
5833 5831 5829 5826 5824 5821 5819 5817 5815 5813 5811 5809 5807 5805 5803 5802 5800 5799 5797 5796 5795 5795 5795 5795 5795 5795 5796 5796 5797 5797 5798 5798 5799 5799 5800 5801 5803 5805 5806 5808 5809 5810 5812
5827 5825 5822 5819 5816 5813 5811 5808 5806 5803 5801 5799 5796 5794 5792 5791 5788 5787 5785 5784 5782 5782 5782 5782 5782 5782 5783 5784 5785 5786 5786 5787 5788 5789 5790 5791 5793 5794 5796 5798 5800 5802 5804
5821 5818 5815 5812 5809 5806 5803 5800 5797 5794 5791 5788 5785 5783 5780 5778 5775 5773 5771 5769 5768 5767 5767 5767 5768 5768 5769 5770 5771 5773 5774 5775 5776 5778 5779 5781 5782 5784 5786 5788 5790 5792 5795
5813 5810 5807 5803 5800 5796 5793 5790 5786 5782 5779 5776 5773 5770 5768 5765 5762 5759 5756 5754 5751 5751 5751 5749 5751 5753 5753 5755 5756 5758 5760 5761 5763 5766 5768 5770 5771 5773 5775 5777 5780 5782 5785
5804 5801 5797 5793 5789 5785 5782 5777 5774 5769 5765 5761 5759 5756 5753 5750 5747 5743 5741 5739 5736 5735 5734 5732 5732 5733 5735 5738 5740 5742 5745 5747 5749 5752 5754 5757 5759 5761 5763 5766 5769 5772 5774
5794 5790 5786 5782 5778 5773 5768 5763 5759 5754 5749 5744 5741 5738 5735 5732 5728 5725 5722 5721 5720 5717 5715 5714 5714 5714 5715 5717 5721 5724 5727 5730 5734 5737 5740 5743 5746 5748 5751 5754 5757 5760 5762
5782 5778 5773 5768 5762 5757 5751 5747 5741 5735 5731 5725 5720 5715 5713 5714 5709 5704 5700 5699 5698 5696 5695 5694 5692 5693 5696 5697 5699 5703 5707 5711 5715 5720 5724 5727 5731 5734 5738 5741 5744 5747 5750
5769 5764 5758 5752 5745 5738 5731 5726 5719 5713 5709 5704 5697 5691 5687 5686 5686 5684 5679 5677 5674 5671 5671 5671 5670 5670 5672 5675 5677 5681 5685 5690 5695 5700 5705 5710 5714 5718 5723 5727 5731 5734 5738
5753 5747 5741 5734 5727 5719 5711 5705 5698 5692 5686 5682 5678 5670 5664 5661 5659 5658 5660 5657 5653 5650 5648 5646 5646 5648 5650 5652 5654 5658 5662 5667 5673 5679 5685 5690 5696 5701 5706 5711 5716 5720 5724
5736 5729 5722 5715 5707 5699 5690 5683 5676 5670 5664 5659 5656 5650 5645 5641 5639 5634 5637 5641 5636 5632 5627 5624 5624 5627 5629 5630 5631 5634 5638 5644 5650 5656 5663 5670 5676 5682 5687 5693 5699 5705 5710
5719 5711 5703 5695 5686 5677 5669 5662 5656 5650 5645 5641 5637 5632 5628 5625 5622 5617 5616 5620 5619 5616 5609 5607 5607 5609 5610 5611 5611 5612 5615 5621 5627 5633 5640 5647 5654 5661 5668 5675 5681 5688 5693
5702 5692 5684 5675 5665 5657 5649 5643 5638 5633 5628 5624 5620 5616 5612 5608 5605 5602 5599 5599 5599 5598 5593 5591 5591 5592 5594 5593 5593 5593 5596 5599 5605 5610 5616 5624 5632 5639 5647 5655 5663 5670 5676
5682 5672 5663 5654 5646 5639 5633 5627 5622 5617 5612 5608 5603 5599 5595 5593 5590 5587 5584 5582 5580 5580 5578 5577 5576 5577 5577 5577 5577 5578 5579 5582 5586 5591 5596 5603 5611 5619 5627 5635 5644 5652 5659
5662 5653 5644 5637 5631 5625 5619 5613 5607 5602 5597 5593 5588 5584 5581 5579 5576 5574 5571 5568 5566 5564 5565 5565 5563 5563 5563 5563 5564 5565 5567 5570 5573 5576 5581 5586 5593 5601 5609 5618 5626 5634 5642
5645 5637 5631 5624 5618 5611 5605 5599 5594 5589 5585 5581 5577 5573 5570 5567 5565 5563 5560 5558 5555 5553 5553 5554 5553 5552 5552 5553 5555 5556 5558 5561 5563 5566 5570 5575 5580 5587 5594 5602 5611 5619 5627
5632 5626 5620 5613 5607 5601 5595 5589 5584 5580 5575 5571 5567 5564 5561 5558 5556 5554 5552 5549 5547 5545 5544 5545 5544 5545 5545 5547 5548 5550 5552 5555 5557 5560 5563 5567 5572 5577 5582 5589 5596 5604 5613
5622 5616 5610 5604 5598 5592 5586 5581 5576 5571 5567 5563 5559 5556 5553 5551 5549 5546 5544 5541 5539 5538 5537 5537 5538 5539 5540 5542 5544 5546 5548 5551 5554 5557 5559 5562 5565 5568 5572 5578 5584 5592 5601
5613 5607 5602 5596 5590 5584 5579 5574 5569 5564 5559 5555 5552 5549 5546 5544 5542 5539 5537 5534 5532 5531 5531 5531 5532 5534 5536 5538 5540 5543 5546 5549 5552 5554 5556 5558 5560 5562 5566 5571 5577 5585 5595
5606 5600 5594 5588 5583 5577 5572 5567 5562 5558 5553 5549 5545 5543 5541 5539 5537 5534 5531 5529 5527 5525 5525 5526 5528 5530 5533 5535 5538 5542 5545 5548 5550 5552 5554 5556 5558 5562 5565 5571 5578 5586 5595
5600 5594 5588 5583 5577 5572 5567 5562 5557 5553 5549 5544 5541 5539 5537 5535 5532 5530 5527 5524 5522 5521 5521 5522 5525 5527 5530 5533 5537 5540 5543 5546 5548 5550 5553 5556 5559 5564 5570 5575 5581 5588 5596
5594 5589 5583 5578 5573 5568 5563 5558 5553 5549 5545 5541 5538 5536 5534 5532 5529 5527 5524 5521 5519 5519 5519 5520 5522 5525 5528 5532 5536 5539 5542 5544 5547 5549 5552 5556 5560 5566 5572 5578 5584 5591 5597
5589 5583 5577 5572 5567 5562 5558 5553 5549 5545 5541 5538 5536 5533 5531 5529 5526 5524 5522 5519 5518 5517 5518 5520 5522 5524 5528 5532 5535 5538 5541 5544 5547 5550 5553 5556 5559 5565 5572 5579 5586 5592 5599
5582 5576 5570 5565 5560 5555 5551 5547 5544 5540 5538 5535 5533 5530 5528 5526 5524 5522 5520 5518 5517 5517 5518 5520 5522 5525 5528 5532 5535 5538 5541 5544 5547 5551 5554 5557 5561 5566 5573 5580 5587 5593 5599
5576 5569 5563 5557 5552 5548 5544 5540 5537 5534 5532 5530 5529 5527 5525 5523 5521 5519 5518 5517 5517 5517 5518 5520 5523 5526 5529 5532 5536 5539 5542 5545 5548 5552 5556 5559 5564 5569 5575 5582 5588 5594 5599
5569 5562 5556 5550 5545 5540 5537 5533 5530 5528 5526 5525 5524 5523 5522 5520 5518 5517 5517 5517 5517 5518 5519 5521 5524 5526 5530 5533 5536 5540 5544 5547 5550 5554 5557 5562 5567 5572 5578 5583 5589 5594 5599